GSAT0218 (GALILEO 22)

Last updated on Sun Dec 14 2025 00:02:36 GMT+0000 (Coordinated Universal Time)

1 43058U 17079D 25346.62814548 .00000017 00000+0 00000+0 0 9998 2 43058 55.1287 226.6365 0002841 306.3289 53.7237 1.70474063 49839
UTC large
Height (km)
Speed (km/s)
/
Latitude / Longitude
Inclination (degrees)
Orbital Period (minutes)
Azimuth
Elevation
Range (km)
Doppler Factor

Next 0 passes for location: London (51.5072 / 0.1276)

Sorry there are no passes over London.